Regional Weather Roundup
Issued by NWS

Home | Current Version | Previous Version | Text Only | Print | Product List | Glossary Off
Versions: 1 2 3 4 5 6 7 8 9 10 11 12 13 14 15 16 17 18 19 20 21 22 23 24 25 26 27 28 29 30 31 32 33 34 35 36 37 38 39 40 41 42 43 44 45 46 47 48 49 50

000
ASUS43 KTOP 210559
RWRKS

WEATHER ROUNDUP FOR KANSAS
NATIONAL WEATHER SERVICE GOODLAND KS
100 AM CDT SAT OCT 21 2017

NOTE:  "FAIR" INDICATES FEW OR NO CLOUDS BELOW 12,000 FEET WITH NO
SIGNIFICANT WEATHER AND/OR OBSTRUCTIONS TO VISIBILITY.

KSZ001>006-013>018-027>032-041>047-210700-
NORTHWEST KANSAS

CITY           SKY/WX    TMP DP  RH WIND       PRES   REMARKS
GOODLAND       CLEAR     54  44  69 S13       29.50F
6HR MIN TEMP:  54; 6HR MAX TEMP:  70;

HAYS           CLEAR     68  61  78 S28G39    29.58F
HILL CITY      CLEAR     70  59  68 S23G40    29.54S
6HR MIN TEMP:  68; 6HR MAX TEMP:  73;

RUSSELL        CLEAR     68  63  84 S31G44    29.60S
6HR MIN TEMP:  68; 6HR MAX TEMP:  73;

$$

KSZ061>065-074>080-084>089-210700-
SOUTHWEST KANSAS

CITY           SKY/WX    TMP DP  RH WIND       PRES   REMARKS
DODGE CITY     CLEAR     67  58  72 S29G41    29.65F
6HR MIN TEMP:  67; 6HR MAX TEMP:  71;

ELKHART          N/A     62  51  67 S18         N/A
GARDEN CITY    CLEAR     68  55  63 S29G37    29.60F
6HR MIN TEMP:  65; 6HR MAX TEMP:  73;

GREAT BEND     MOCLDY    68  63  83 S29G40    29.65R
LIBERAL        CLEAR     68  57  68 S29G35    29.65S
$$

KSZ066>073-081>083-090>101-210700-
SOUTHEAST KANSAS

CITY           SKY/WX    TMP DP  RH WIND       PRES   REMARKS
CHANUTE        CLEAR     64  59  83 S15       29.88S
6HR MIN TEMP:  64; 6HR MAX TEMP:  70;

COFFEYVILLE    PTCLDY    65  60  84 S14       29.89S
6HR MIN TEMP:  65; 6HR MAX TEMP:  72;

HUTCHINSON     CLOUDY    69  63  81 S26G36    29.71F
6HR MIN TEMP:  69; 6HR MAX TEMP:  73;

MEDICINE LODGE   N/A     68  61  78 S20G29    29.72F
NEWTON         CLOUDY    68  61  78 S31G40    29.75F
PARSONS        CLEAR     65  59  81 S7G16     29.90S
6HR MIN TEMP:  65; 6HR MAX TEMP:  72;

WICHITA INTL   CLOUDY    69  63  81 S22G35    29.76F
6HR MIN TEMP:  69; 6HR MAX TEMP:  73;

WICHITA JABRA  MOCLDY    68  63  84 S21G35    29.77F
6HR MIN TEMP:  68; 6HR MAX TEMP:  73;

WICHITA MCCONL PTCLDY    68  60  75 S24G35    29.78F
WINFIELD       CLEAR     68  63  84 S18       29.82F
6HR MIN TEMP:  68; 6HR MAX TEMP:  74;

$$

KSZ007>012-019>026-033>040-048>060-102>105-210700-
NORTHEAST KANSAS

CITY           SKY/WX    TMP DP  RH WIND       PRES   REMARKS
CONCORDIA      MOCLDY    70  62  76 S26G44    29.64F
6HR MIN TEMP:  68; 6HR MAX TEMP:  72;

EMPORIA        CLOUDY    65  58  78 S22G33    29.80F
6HR MIN TEMP:  65; 6HR MAX TEMP:  69;

LAWRENCE       PTCLDY    66  59  78 SE17G25   29.83F
6HR MIN TEMP:  66; 6HR MAX TEMP:  70;

MANHATTAN      CLEAR     69  60  73 S21G29    29.71F
6HR MIN TEMP:  69; 6HR MAX TEMP:  72;

OLATHE IND     CLEAR     63  57  81 S14       29.87S
6HR MIN TEMP:  63; 6HR MAX TEMP:  68;

OLATHE EXE     CLEAR     62  57  83 S15G24    29.87F
6HR MIN TEMP:  62; 6HR MAX TEMP:  67;

SALINA         PTCLDY    72  63  73 S28G44    29.68S
6HR MIN TEMP:  72; 6HR MAX TEMP:  74;

TOPEKA BILLARD CLOUDY    68  60  75 S21G31    29.79F
6HR MIN TEMP:  68; 6HR MAX TEMP:  71;

TOPEKA FORBES  CLOUDY    68  60  75 S17G28    29.80F
6HR MIN TEMP:  68; 6HR MAX TEMP:  71;

$$




USA.gov is the U.S. government's official web portal to all federal, state and local government web resources and services.